Location: Guadanolo
(41.9167°N, 12.9333°E)
Time: 23:56:30
(UTC+00:00)

Cosmos 2333 Rocket - Pass Details

Date: 16 September 2019
Orbit: 840 x 862 km, 70.8° (Epoch: 22 October)

Event Time Altitude Azimuth Distance (km) Brightness Sun altitude
Rises 18:13:42 0° 339° (NNW) 3,419 5.9 -11.3°
Reaches altitude 10° 18:16:13 10° 344° (NNW) 2,484 5.1 -11.7°
Maximum altitude 18:21:47 52° 61° (ENE) 1,050 2.4 -12.7°
Enters shadow 18:26:27 15° 135° (SE) 2,159 3.8 -13.6°
